TimeCEST,TemperatureF,Dew PointF,Humidity,Sea Level PressureIn,VisibilityMPH,Wind Direction,Wind SpeedMPH,Gust SpeedMPH,PrecipitationIn,Events,Conditions,WindDirDegrees,DateUTC
1:00 AM,41.0,37.4,87,29.98,-9999.0,ESE,2.3,-,N/A,,Clear,120,2012-10-08 23:00:00
3:00 AM,39.2,35.6,87,29.92,-9999.0,SE,2.3,-,N/A,,Clear,130,2012-10-09 01:00:00
4:00 AM,41.0,35.6,81,29.89,-9999.0,SE,2.3,-,N/A,,Clear,140,2012-10-09 02:00:00
5:00 AM,39.2,35.6,87,29.86,-9999.0,SSE,5.8,-,N/A,,Clear,160,2012-10-09 03:00:00
6:00 AM,41.0,35.6,81,29.83,-9999.0,SE,4.6,-,N/A,,Clear,130,2012-10-09 04:00:00
7:00 AM,39.2,35.6,87,29.83,-9999.0,East,2.3,-,N/A,,Clear,90,2012-10-09 05:00:00
9:00 AM,44.6,39.2,81,29.80,6.2,ESE,3.5,-,N/A,,Mostly Cloudy,120,2012-10-09 07:00:00
10:00 AM,46.4,41.0,81,29.83,6.2,Variable,2.3,-,N/A,,Mostly Cloudy,0,2012-10-09 08:00:00
11:00 AM,50.0,41.0,71,29.83,6.2,Variable,2.3,-,N/A,,Mostly Cloudy,0,2012-10-09 09:00:00
12:00 PM,51.8,42.8,71,29.83,6.2,Variable,2.3,-,N/A,,Mostly Cloudy,0,2012-10-09 10:00:00
1:00 PM,51.8,44.6,76,29.83,6.2,NNW,8.1,-,N/A,,Mostly Cloudy,330,2012-10-09 11:00:00
2:00 PM,53.6,44.6,72,29.83,6.2,NW,12.7,-,N/A,,Mostly Cloudy,320,2012-10-09 12:00:00
3:00 PM,55.4,44.6,67,29.83,6.2,WNW,9.2,-,N/A,,Scattered Clouds,300,2012-10-09 13:00:00
4:00 PM,53.6,42.8,67,29.83,6.2,NW,12.7,-,N/A,,Mostly Cloudy,320,2012-10-09 14:00:00
5:00 PM,53.6,42.8,67,29.83,6.2,NNW,9.2,-,N/A,,Mostly Cloudy,330,2012-10-09 15:00:00
6:00 PM,48.2,42.8,82,29.86,-9999.0,West,5.8,-,N/A,,Clear,280,2012-10-09 16:00:00
7:00 PM,48.2,41.0,76,29.89,-9999.0,NW,6.9,-,N/A,,Clear,310,2012-10-09 17:00:00
8:00 PM,48.2,39.2,71,29.92,-9999.0,NW,6.9,-,N/A,,Clear,320,2012-10-09 18:00:00
9:00 PM,42.8,39.2,87,29.95,-9999.0,West,4.6,-,N/A,,Clear,280,2012-10-09 19:00:00
10:00 PM,41.0,37.4,87,29.95,-9999.0,West,5.8,-,N/A,,Clear,260,2012-10-09 20:00:00
11:00 PM,41.0,37.4,87,29.95,-9999.0,WSW,4.6,-,N/A,,Clear,250,2012-10-09 21:00:00